AFR388 LFPG-TNCM

Flight info

Callsign AFR388
Flight time N/A
Altitude 35000
Route LGL UT176 TERPO UN872 ERIGA/N0454F330 UN741 AZFIC/N0461F370 DCT LOTEE/N0466F390 DCT PETEK DCT DETOX/M081F380 DCT LENSI/M081F400 DCT 3530N03000W 33N040W 31N045W 29N050W 26N055W DCT RKDIA M576 OBIKE/N0459F400 M576 PJM
Aircraft A332/H-SDE3GHIJ2J3J5M1RVWXY/LB2D1

Departure

Time 2026-05-01 07:46
Airport Charles de Gaulle International Airport (LFPG)

Arrival

Time N/A
Airport Princess Juliana International Airport (TNCM)
Time Latitude Longitude Altitude Speed Heading
2026-05-01 07:27 49.00189 2.56055 358 ft 0 kts
2026-05-01 07:36 49.00181 2.56054 358 ft 4 kts
2026-05-01 07:36 49.00154 2.56052 358 ft 4 kts 359°
2026-05-01 07:36 49.00127 2.56055 358 ft 4 kts 349°
2026-05-01 07:37 49.00087 2.56091 365 ft 3 kts 269°
2026-05-01 07:37 49.00087 2.56094 365 ft 1 kts 265°
2026-05-01 07:39 49.00086 2.56071 366 ft 5 kts 264°
2026-05-01 07:40 49.00080 2.55991 359 ft 10 kts 264°
2026-05-01 07:40 49.00073 2.55860 365 ft 15 kts 266°
2026-05-01 07:40 49.00068 2.55705 362 ft 14 kts 261°
2026-05-01 07:40 49.00030 2.55575 364 ft 14 kts 233°
2026-05-01 07:41 48.99954 2.55543 363 ft 11 kts 154°
2026-05-01 07:41 48.99890 2.55599 362 ft 10 kts 142°
2026-05-01 07:41 48.99815 2.55785 365 ft 9 kts 137°
2026-05-01 07:42 48.99753 2.55809 360 ft 10 kts 176°
2026-05-01 07:42 48.99700 2.55814 362 ft 0 kts 176°
2026-05-01 07:44 48.99660 2.55818 365 ft 8 kts 176°
2026-05-01 07:44 48.99614 2.56045 365 ft 31 kts 85°
2026-05-01 07:45 48.99644 2.56669 361 ft 86 kts 85°
2026-05-01 07:45 48.99707 2.57823 360 ft 131 kts 86°
2026-05-01 07:45 48.99803 2.59384 515 ft 157 kts 88°
2026-05-01 07:45 48.99895 2.61116 902 ft 169 kts 88°
2026-05-01 07:46 48.99987 2.62945 1437 ft 175 kts 88°
2026-05-01 07:46 49.00084 2.64863 1685 ft 193 kts 88°
2026-05-01 07:46 49.00313 2.69374 2090 ft 234 kts 87°
2026-05-01 07:47 49.00445 2.71955 2332 ft 251 kts 86°
2026-05-01 07:47 49.00587 2.74639 2710 ft 263 kts 87°
2026-05-01 07:47 49.00677 2.77456 3346 ft 268 kts 94°
2026-05-01 07:47 49.00407 2.80238 4163 ft 264 kts 108°
2026-05-01 07:48 48.98131 2.84334 5680 ft 261 kts 160°
2026-05-01 07:48 48.96362 2.84672 6387 ft 263 kts 188°
2026-05-01 07:48 48.94670 2.83596 7056 ft 268 kts 218°
2026-05-01 07:49 48.93531 2.81340 7745 ft 274 kts 247°
2026-05-01 07:49 48.93001 2.75549 9190 ft 283 kts 264°
2026-05-01 07:49 48.92882 2.72547 9897 ft 286 kts 264°
2026-05-01 07:50 48.92748 2.69485 10496 ft 294 kts 264°
2026-05-01 07:50 48.92416 2.62888 10999 ft 331 kts 264°
2026-05-01 07:50 48.92228 2.59348 11256 ft 347 kts 263°
2026-05-01 07:51 48.92028 2.55643 11703 ft 355 kts 263°
2026-05-01 07:51 48.91822 2.51875 12277 ft 360 kts 263°
2026-05-01 07:51 48.91611 2.48058 12850 ft 365 kts 263°
2026-05-01 07:52 48.91175 2.40281 13984 ft 373 kts 263°
2026-05-01 07:52 48.90952 2.36332 14492 ft 377 kts 262°
2026-05-01 07:52 48.90724 2.32332 15017 ft 380 kts 262°
2026-05-01 07:53 48.90260 2.24259 16055 ft 387 kts 262°
2026-05-01 07:53 48.90023 2.20174 16564 ft 390 kts 262°
2026-05-01 07:53 48.89783 2.16055 17079 ft 393 kts 262°
2026-05-01 07:53 48.89542 2.11952 17582 ft 396 kts 261°
2026-05-01 07:54 48.89040 2.03504 18585 ft 402 kts 261°
2026-05-01 07:55 48.88273 1.90751 19837 ft 410 kts 261°
2026-05-01 07:55 48.87742 1.82069 20666 ft 415 kts 261°
2026-05-01 07:56 48.86921 1.68861 21900 ft 423 kts 261°
2026-05-01 07:56 48.86356 1.59912 22711 ft 428 kts 261°
2026-05-01 07:57 48.86069 1.55412 23077 ft 430 kts 261°
2026-05-01 07:57 48.85484 1.46323 23845 ft 435 kts 261°
2026-05-01 07:58 48.84889 1.37175 24458 ft 439 kts 261°
2026-05-01 07:58 48.84276 1.27886 25118 ft 443 kts 261°
2026-05-01 07:59 48.83653 1.18545 25753 ft 446 kts 261°
2026-05-01 07:59 48.83020 1.09190 26357 ft 450 kts 261°
2026-05-01 08:00 48.81709 0.90140 27529 ft 457 kts 261°
2026-05-01 08:01 48.80693 0.75691 28457 ft 461 kts 261°
2026-05-01 08:01 48.80348 0.70835 28725 ft 463 kts 261°
2026-05-01 08:01 48.79998 0.65949 28991 ft 465 kts 261°
2026-05-01 08:02 48.78950 0.56336 29516 ft 464 kts 250°
2026-05-01 08:02 48.77755 0.51815 29746 ft 461 kts 239°
2026-05-01 08:03 48.74100 0.43933 30270 ft 459 kts 227°
2026-05-01 08:03 48.72044 0.40221 30405 ft 463 kts 227°
2026-05-01 08:03 48.67779 0.32799 30755 ft 467 kts 227°
2026-05-01 08:04 48.63507 0.25363 31188 ft 470 kts 227°
2026-05-01 08:04 48.59233 0.17858 31568 ft 473 kts 227°
2026-05-01 08:05 48.54973 0.10314 32245 ft 470 kts 227°
2026-05-01 08:05 48.53574 0.07824 32452 ft 469 kts 227°
2026-05-01 08:05 48.51474 0.04088 32753 ft 467 kts 227°
2026-05-01 08:06 48.47263 -0.03386 33312 ft 466 kts 228°
2026-05-01 08:06 48.43049 -0.10834 33809 ft 466 kts 228°
2026-05-01 08:07 48.38852 -0.18227 34250 ft 466 kts 228°
2026-05-01 08:07 48.34631 -0.25639 34687 ft 465 kts 227°
2026-05-01 08:08 48.32518 -0.29311 34890 ft 464 kts 227°
2026-05-01 08:08 48.28303 -0.36579 35192 ft 463 kts 227°
2026-05-01 08:09 48.24057 -0.43871 35202 ft 460 kts 227°
2026-05-01 08:09 48.19861 -0.51062 35208 ft 461 kts 227°
2026-05-01 08:10 48.11384 -0.65547 35204 ft 463 kts 227°
2026-05-01 08:11 48.02882 -0.79996 35202 ft 462 kts 227°
2026-05-01 08:12 47.96484 -0.90817 35204 ft 462 kts 228°
2026-05-01 08:13 47.90116 -1.01546 35224 ft 460 kts 228°
2026-05-01 08:13 47.83768 -1.12195 35224 ft 460 kts 228°
2026-05-01 08:14 47.79503 -1.19328 35207 ft 460 kts 228°
2026-05-01 08:14 47.75254 -1.26413 35222 ft 461 kts 229°
2026-05-01 08:15 47.68852 -1.37055 35227 ft 460 kts 229°
2026-05-01 08:16 47.64575 -1.44141 35214 ft 460 kts 229°
2026-05-01 08:16 47.60313 -1.51184 35223 ft 460 kts 229°
2026-05-01 08:17 47.56041 -1.58233 35204 ft 460 kts 229°
2026-05-01 08:17 47.51785 -1.65241 35223 ft 459 kts 229°
2026-05-01 08:18 47.47533 -1.72226 35214 ft 457 kts 229°
2026-05-01 08:19 47.39033 -1.86132 35196 ft 455 kts 229°
2026-05-01 08:19 47.34581 -1.92724 35214 ft 456 kts 219°
2026-05-01 08:20 47.29335 -1.97955 35211 ft 456 kts 213°
2026-05-01 08:20 47.23894 -2.02838 35211 ft 456 kts 212°
2026-05-01 08:21 47.18458 -2.07620 35212 ft 456 kts 211°
2026-05-01 08:21 47.13055 -2.12393 35213 ft 452 kts 212°
2026-05-01 08:22 47.07701 -2.17140 35218 ft 450 kts 212°
2026-05-01 08:22 47.02318 -2.21911 35219 ft 451 kts 212°
2026-05-01 08:23 46.96948 -2.26659 35220 ft 451 kts 212°
2026-05-01 08:23 46.91575 -2.31397 35224 ft 450 kts 212°
2026-05-01 08:24 46.86589 -2.36861 35222 ft 449 kts 226°
2026-05-01 08:24 46.82882 -2.44089 35222 ft 448 kts 238°
2026-05-01 08:25 46.79715 -2.51958 35222 ft 447 kts 239°
2026-05-01 08:25 46.76660 -2.59857 35224 ft 447 kts 240°
2026-05-01 08:26 46.73582 -2.67726 35229 ft 447 kts 239°
2026-05-01 08:26 46.70490 -2.75524 35230 ft 447 kts 239°
2026-05-01 08:27 46.67373 -2.83333 35229 ft 447 kts 239°
2026-05-01 08:27 46.64244 -2.91147 35228 ft 445 kts 238°
2026-05-01 08:28 46.61120 -2.98930 35231 ft 444 kts 238°
2026-05-01 08:28 46.57990 -3.06650 35215 ft 444 kts 236°
2026-05-01 08:29 46.54143 -3.13582 35230 ft 442 kts 226°
2026-05-01 08:29 46.49910 -3.20092 35230 ft 442 kts 225°
2026-05-01 08:30 46.45645 -3.26451 35242 ft 440 kts 225°
2026-05-01 08:30 46.41391 -3.32785 35218 ft 438 kts 225°
2026-05-01 08:31 46.37157 -3.39109 35221 ft 438 kts 225°
2026-05-01 08:31 46.32926 -3.45427 35237 ft 438 kts 225°
2026-05-01 08:32 46.28669 -3.51773 35214 ft 438 kts 225°
2026-05-01 08:32 46.24431 -3.58072 35233 ft 438 kts 225°
2026-05-01 08:33 46.20194 -3.64357 35224 ft 437 kts 224°
2026-05-01 08:33 46.15964 -3.70615 35225 ft 435 kts 224°
2026-05-01 08:34 46.11735 -3.76856 35226 ft 435 kts 224°
2026-05-01 08:34 46.07507 -3.83082 35221 ft 436 kts 224°
2026-05-01 08:35 46.03264 -3.89314 35218 ft 436 kts 224°
2026-05-01 08:35 45.99019 -3.95537 35224 ft 436 kts 224°
2026-05-01 08:36 45.94782 -4.01731 35230 ft 434 kts 224°
2026-05-01 08:36 45.90555 -4.07899 35227 ft 433 kts 224°
2026-05-01 08:37 45.86328 -4.14051 35217 ft 434 kts 225°
2026-05-01 08:37 45.82091 -4.20203 35217 ft 434 kts 225°
2026-05-01 08:38 45.77850 -4.26348 35220 ft 434 kts 225°
2026-05-01 08:38 45.73592 -4.32503 35218 ft 434 kts 224°
2026-05-01 08:39 45.69336 -4.38642 35216 ft 434 kts 224°
2026-05-01 08:39 45.65088 -4.44753 35207 ft 434 kts 225°
2026-05-01 08:40 45.58719 -4.53891 35212 ft 435 kts 225°
2026-05-01 08:40 45.54430 -4.60028 35227 ft 435 kts 225°
2026-05-01 08:41 45.50184 -4.66088 35211 ft 435 kts 224°
2026-05-01 08:41 45.45888 -4.72206 35207 ft 435 kts 225°
2026-05-01 08:42 45.41612 -4.78281 35210 ft 435 kts 225°
2026-05-01 08:42 45.37342 -4.84337 35210 ft 435 kts 225°
2026-05-01 08:43 45.33063 -4.90389 35205 ft 435 kts 225°
2026-05-01 08:43 45.28761 -4.96461 35204 ft 435 kts 225°
2026-05-01 08:44 45.24473 -5.02498 35225 ft 435 kts 226°
2026-05-01 08:44 45.20191 -5.08514 35204 ft 432 kts 226°
2026-05-01 08:45 45.15933 -5.14482 35204 ft 430 kts 226°
2026-05-01 08:45 45.11695 -5.20411 35203 ft 431 kts 225°
2026-05-01 08:46 45.07429 -5.26365 35203 ft 431 kts 225°
2026-05-01 08:46 45.03161 -5.32308 35212 ft 431 kts 226°
2026-05-01 08:47 44.98885 -5.38249 35201 ft 431 kts 225°
2026-05-01 08:47 44.94628 -5.44151 35207 ft 426 kts 225°
2026-05-01 08:48 44.90415 -5.49979 35196 ft 425 kts 225°
2026-05-01 08:48 44.86186 -5.55818 35193 ft 426 kts 225°
2026-05-01 08:49 44.81961 -5.61638 35183 ft 427 kts 225°
2026-05-01 08:49 44.77704 -5.67489 35203 ft 427 kts 225°
2026-05-01 08:50 44.73447 -5.73327 35197 ft 427 kts 225°
2026-05-01 08:50 44.69211 -5.79127 35200 ft 423 kts 226°
2026-05-01 08:51 44.65615 -5.85574 35196 ft 422 kts 240°
2026-05-01 08:51 44.63134 -5.93061 35195 ft 423 kts 246°
2026-05-01 08:52 44.60946 -6.00720 35191 ft 423 kts 247°
2026-05-01 08:52 44.58789 -6.08414 35188 ft 423 kts 247°
2026-05-01 08:53 44.56618 -6.16044 35190 ft 421 kts 246°
2026-05-01 08:53 44.54428 -6.23648 35191 ft 419 kts 246°
2026-05-01 08:54 44.52242 -6.31192 35189 ft 420 kts 246°
2026-05-01 08:54 44.50036 -6.38784 35188 ft 420 kts 246°
2026-05-01 08:55 44.47825 -6.46371 35184 ft 420 kts 246°
2026-05-01 08:55 44.45621 -6.53918 35183 ft 418 kts 246°
2026-05-01 08:56 44.43422 -6.61421 35185 ft 417 kts 246°
2026-05-01 08:56 44.41219 -6.68915 35180 ft 418 kts 246°
2026-05-01 08:57 44.38995 -6.76458 35181 ft 420 kts 246°
2026-05-01 08:57 44.36768 -6.83991 35183 ft 421 kts 246°
2026-05-01 08:58 44.34537 -6.91517 35181 ft 419 kts 245°
2026-05-01 08:58 44.32313 -6.98996 35181 ft 417 kts 245°
2026-05-01 08:59 44.30083 -7.06470 35181 ft 417 kts 245°
2026-05-01 08:59 44.27837 -7.13976 35181 ft 418 kts 245°
2026-05-01 09:00 44.25592 -7.21459 35181 ft 418 kts 245°
2026-05-01 09:00 44.23352 -7.28903 35182 ft 416 kts 245°
2026-05-01 09:01 44.21115 -7.36316 35179 ft 415 kts 245°
2026-05-01 09:01 44.18878 -7.43705 35179 ft 415 kts 245°
2026-05-01 09:02 44.16630 -7.51108 35175 ft 416 kts 245°
2026-05-01 09:02 44.14368 -7.58536 35179 ft 417 kts 245°
2026-05-01 09:03 44.12103 -7.65956 35181 ft 417 kts 244°
2026-05-01 09:03 44.10201 -7.72170 35181 ft 416 kts 244°
2026-05-01 09:04 44.07937 -7.79545 35165 ft 416 kts 244°
2026-05-01 09:04 44.05663 -7.86931 35179 ft 416 kts 244°
2026-05-01 09:05 44.03384 -7.94312 35178 ft 416 kts 244°
2026-05-01 09:05 44.01104 -8.01678 35161 ft 416 kts 244°
2026-05-01 09:06 43.98816 -8.09047 35175 ft 416 kts 244°
2026-05-01 09:06 43.96523 -8.16410 35172 ft 416 kts 244°
2026-05-01 09:07 43.94226 -8.23767 35174 ft 416 kts 244°
2026-05-01 09:07 43.91926 -8.31113 35165 ft 416 kts 244°
2026-05-01 09:08 43.89614 -8.38476 35167 ft 416 kts 244°
2026-05-01 09:08 43.87292 -8.45850 35167 ft 416 kts 244°
2026-05-01 09:09 43.84974 -8.53191 35163 ft 416 kts 244°
2026-05-01 09:09 43.82653 -8.60519 35180 ft 416 kts 243°
2026-05-01 09:10 43.80323 -8.67858 35162 ft 416 kts 243°
2026-05-01 09:10 43.77993 -8.75174 35169 ft 416 kts 243°
2026-05-01 09:11 43.75663 -8.82468 35163 ft 416 kts 243°
2026-05-01 09:11 43.73311 -8.89814 35163 ft 416 kts 243°
2026-05-01 09:12 43.70975 -8.97089 35167 ft 416 kts 243°
2026-05-01 09:12 43.68621 -9.04401 35168 ft 416 kts 243°
2026-05-01 09:13 43.66267 -9.11691 35166 ft 416 kts 243°
2026-05-01 09:13 43.63893 -9.19020 35164 ft 418 kts 243°
2026-05-01 09:14 43.61519 -9.26334 35164 ft 418 kts 243°
2026-05-01 09:14 43.59142 -9.33634 35162 ft 418 kts 243°
2026-05-01 09:15 43.56764 -9.40919 35165 ft 418 kts 243°
2026-05-01 09:15 43.54373 -9.48223 35179 ft 418 kts 242°
2026-05-01 09:16 43.51968 -9.55550 35166 ft 417 kts 242°
2026-05-01 09:17 43.48379 -9.66447 35161 ft 417 kts 242°
2026-05-01 09:17 43.44769 -9.77363 35159 ft 417 kts 242°
2026-05-01 09:18 43.41162 -9.88224 35160 ft 417 kts 242°
2026-05-01 09:19 43.37538 -9.99095 35159 ft 417 kts 242°
2026-05-01 09:20 43.33901 -10.09959 35159 ft 417 kts 242°
2026-05-01 09:21 43.29041 -10.24409 35159 ft 417 kts 242°
2026-05-01 09:21 43.25400 -10.35185 35154 ft 416 kts 242°
2026-05-01 09:22 43.20509 -10.49593 35154 ft 416 kts 242°
2026-05-01 09:23 43.16839 -10.60353 35155 ft 417 kts 242°
2026-05-01 09:24 43.13143 -10.71148 35155 ft 417 kts 242°
2026-05-01 09:25 43.08213 -10.85481 35148 ft 417 kts 242°
2026-05-01 09:26 43.04501 -10.96224 35164 ft 417 kts 242°
2026-05-01 09:26 43.00759 -11.07009 35148 ft 419 kts 242°
2026-05-01 09:27 42.97004 -11.17792 35149 ft 419 kts 242°
2026-05-01 09:28 42.94495 -11.24974 35146 ft 419 kts 242°
2026-05-01 09:28 42.91987 -11.32133 35169 ft 419 kts 242°
2026-05-01 09:29 42.88198 -11.42911 35145 ft 421 kts 242°
2026-05-01 09:30 42.84403 -11.53669 35144 ft 421 kts 242°
2026-05-01 09:30 42.80598 -11.64413 35153 ft 420 kts 242°
2026-05-01 09:31 42.78051 -11.71579 35150 ft 420 kts 242°
2026-05-01 09:32 42.74222 -11.82322 35149 ft 421 kts 241°
2026-05-01 09:32 42.70379 -11.93060 35148 ft 420 kts 241°
2026-05-01 09:33 42.67687 -12.00091 35150 ft 418 kts 235°
2026-05-01 09:34 42.62709 -12.09798 35141 ft 420 kts 232°
2026-05-01 09:34 42.57546 -12.19391 35117 ft 421 kts 232°
2026-05-01 09:35 42.52385 -12.28980 35147 ft 419 kts 232°
2026-05-01 09:36 42.48958 -12.35348 35140 ft 419 kts 232°
2026-05-01 09:36 42.45506 -12.41753 35166 ft 419 kts 232°
2026-05-01 09:37 42.42061 -12.48130 35140 ft 421 kts 232°
2026-05-01 09:37 42.36890 -12.57675 35141 ft 421 kts 232°
2026-05-01 09:38 42.31675 -12.67270 35137 ft 421 kts 232°
2026-05-01 09:39 42.26494 -12.76774 35142 ft 419 kts 232°
2026-05-01 09:39 42.23034 -12.83104 35138 ft 420 kts 232°
2026-05-01 09:40 42.17820 -12.92616 35138 ft 420 kts 232°
2026-05-01 09:41 42.14352 -12.98928 35137 ft 420 kts 232°
2026-05-01 09:41 42.09117 -13.08428 35135 ft 420 kts 232°
2026-05-01 09:42 42.05645 -13.14714 35155 ft 420 kts 232°
2026-05-01 09:43 41.98645 -13.27346 35134 ft 421 kts 232°
2026-05-01 09:43 41.95158 -13.33620 35134 ft 421 kts 232°
2026-05-01 09:44 41.89885 -13.43082 35136 ft 421 kts 232°
2026-05-01 09:45 41.86365 -13.49380 35135 ft 421 kts 232°
2026-05-01 09:45 41.81092 -13.58793 35134 ft 423 kts 232°
2026-05-01 09:46 41.77558 -13.65083 35128 ft 421 kts 232°
2026-05-01 09:46 41.74057 -13.71305 35130 ft 420 kts 232°
2026-05-01 09:47 41.70636 -13.77370 35132 ft 420 kts 232°
2026-05-01 09:47 41.67110 -13.83610 35130 ft 420 kts 232°
2026-05-01 09:48 41.63575 -13.89852 35130 ft 421 kts 232°
2026-05-01 09:48 41.60048 -13.96068 35122 ft 422 kts 232°
2026-05-01 09:49 41.56478 -14.02347 35124 ft 422 kts 232°
2026-05-01 09:49 41.52916 -14.08599 35113 ft 422 kts 232°
2026-05-01 09:50 41.49390 -14.14776 35122 ft 418 kts 231°
2026-05-01 09:50 41.45855 -14.20954 35122 ft 418 kts 231°
2026-05-01 09:51 41.42324 -14.27113 35122 ft 422 kts 231°
2026-05-01 09:51 41.38738 -14.33355 35121 ft 424 kts 231°
2026-05-01 09:52 41.35155 -14.39581 35125 ft 424 kts 231°
2026-05-01 09:52 41.33373 -14.42671 35243 ft 425 kts 231°
2026-05-01 09:52 41.31570 -14.45796 35417 ft 425 kts 231°
2026-05-01 09:53 41.29757 -14.48934 35623 ft 426 kts 231°
2026-05-01 09:53 41.27964 -14.52035 35783 ft 426 kts 231°
2026-05-01 09:53 41.26145 -14.55178 35963 ft 425 kts 232°
2026-05-01 09:53 41.24364 -14.58252 36292 ft 422 kts 232°
2026-05-01 09:54 41.22566 -14.61352 36412 ft 424 kts 232°
2026-05-01 09:54 41.20762 -14.64459 36511 ft 426 kts 232°
2026-05-01 09:54 41.18944 -14.67586 36668 ft 426 kts 232°
2026-05-01 09:54 41.17157 -14.70658 36829 ft 426 kts 232°
2026-05-01 09:55 41.15341 -14.73776 36987 ft 426 kts 232°
2026-05-01 09:55 41.13526 -14.76890 37096 ft 427 kts 232°
2026-05-01 09:55 41.09869 -14.83154 37102 ft 427 kts 232°
2026-05-01 09:56 41.06250 -14.89340 37099 ft 427 kts 232°
2026-05-01 09:56 41.02606 -14.95557 37094 ft 427 kts 232°
2026-05-01 09:57 40.99313 -15.02085 37086 ft 430 kts 240°
2026-05-01 09:57 40.96576 -15.09161 37092 ft 430 kts 243°
2026-05-01 09:58 40.93963 -15.16285 37091 ft 430 kts 243°
2026-05-01 09:58 40.91371 -15.23368 37084 ft 430 kts 243°
2026-05-01 09:59 40.89188 -15.29287 37086 ft 430 kts 243°
2026-05-01 09:59 40.86121 -15.37549 37081 ft 430 kts 243°
2026-05-01 10:00 40.83490 -15.44608 37083 ft 430 kts 243°
2026-05-01 10:00 40.80850 -15.51676 37075 ft 430 kts 242°
2026-05-01 10:01 40.78630 -15.57610 37071 ft 430 kts 242°
2026-05-01 10:01 40.75988 -15.64653 37085 ft 430 kts 242°
2026-05-01 10:02 40.73341 -15.71692 37069 ft 432 kts 242°
2026-05-01 10:02 40.70658 -15.78810 37061 ft 433 kts 242°
2026-05-01 10:03 40.67982 -15.85895 37061 ft 433 kts 242°
2026-05-01 10:03 40.65288 -15.93008 37060 ft 431 kts 243°
2026-05-01 10:04 40.62628 -16.00015 37078 ft 429 kts 243°
2026-05-01 10:04 40.59949 -16.07054 37059 ft 430 kts 243°
2026-05-01 10:05 40.57267 -16.14086 37058 ft 431 kts 243°
2026-05-01 10:05 40.54566 -16.21149 37056 ft 431 kts 243°
2026-05-01 10:06 40.51880 -16.28157 37056 ft 431 kts 243°
2026-05-01 10:06 40.49171 -16.35207 37061 ft 431 kts 243°
2026-05-01 10:07 40.46459 -16.42250 37053 ft 431 kts 243°
2026-05-01 10:07 40.43764 -16.49230 37053 ft 431 kts 243°
2026-05-01 10:08 40.39702 -16.59720 37053 ft 431 kts 243°
2026-05-01 10:09 40.36976 -16.66740 37053 ft 431 kts 242°
2026-05-01 10:09 40.34261 -16.73717 37056 ft 432 kts 242°
2026-05-01 10:10 40.31521 -16.80739 37043 ft 433 kts 243°
2026-05-01 10:10 40.27436 -16.91178 37048 ft 428 kts 242°
2026-05-01 10:11 40.24710 -16.98126 37048 ft 428 kts 242°
2026-05-01 10:11 40.21980 -17.05065 37053 ft 428 kts 242°
2026-05-01 10:12 40.19254 -17.11978 37048 ft 430 kts 243°
2026-05-01 10:13 40.15133 -17.22400 37045 ft 430 kts 242°
2026-05-01 10:13 40.12379 -17.29344 37045 ft 430 kts 242°
2026-05-01 10:14 40.08236 -17.39762 37050 ft 430 kts 242°
2026-05-01 10:14 40.05468 -17.46703 37042 ft 433 kts 242°
2026-05-01 10:15 40.02679 -17.53677 37042 ft 434 kts 242°
2026-05-01 10:15 39.99885 -17.60649 37043 ft 433 kts 242°
2026-05-01 10:16 39.97089 -17.67613 37035 ft 433 kts 242°
2026-05-01 10:17 39.92935 -17.77925 37036 ft 429 kts 242°
2026-05-01 10:17 39.88744 -17.88294 37034 ft 432 kts 242°
2026-05-01 10:18 39.84533 -17.98676 37032 ft 432 kts 242°
2026-05-01 10:19 39.81722 -18.05589 37029 ft 432 kts 242°
2026-05-01 10:19 39.78902 -18.12505 37029 ft 432 kts 243°
2026-05-01 10:20 39.74665 -18.22870 37026 ft 433 kts 242°
2026-05-01 10:20 39.71831 -18.29782 37026 ft 433 kts 242°
2026-05-01 10:21 39.67576 -18.40132 37026 ft 433 kts 242°
2026-05-01 10:22 39.63305 -18.50484 37021 ft 435 kts 242°
2026-05-01 10:23 39.59044 -18.60780 37023 ft 432 kts 242°
2026-05-01 10:23 39.54776 -18.71056 37020 ft 431 kts 242°
2026-05-01 10:24 39.49072 -18.84738 37015 ft 432 kts 242°
2026-05-01 10:25 39.43347 -18.98406 37009 ft 432 kts 242°
2026-05-01 10:26 39.40484 -19.05220 37009 ft 432 kts 242°
2026-05-01 10:27 39.34746 -19.18831 37007 ft 433 kts 242°
2026-05-01 10:28 39.30415 -19.29064 37003 ft 433 kts 242°
2026-05-01 10:28 39.26078 -19.39278 36994 ft 433 kts 242°
2026-05-01 10:29 39.21747 -19.49442 37006 ft 429 kts 242°
2026-05-01 10:30 39.15960 -19.62978 36998 ft 431 kts 242°
2026-05-01 10:31 39.10181 -19.76433 36998 ft 431 kts 242°
2026-05-01 10:32 39.05799 -19.86597 36998 ft 433 kts 242°
2026-05-01 10:33 39.00048 -20.00229 36999 ft 433 kts 248°
2026-05-01 10:34 38.96734 -20.10999 37001 ft 433 kts 250°
2026-05-01 10:34 38.94611 -20.18267 37001 ft 434 kts 251°
2026-05-01 10:35 38.91421 -20.29138 37002 ft 435 kts 250°
2026-05-01 10:35 38.89266 -20.36415 37002 ft 435 kts 250°
2026-05-01 10:36 38.86040 -20.47256 36992 ft 435 kts 250°
2026-05-01 10:37 38.83874 -20.54514 36999 ft 435 kts 251°
2026-05-01 10:37 38.80613 -20.65405 37001 ft 435 kts 251°
2026-05-01 10:38 38.78448 -20.72613 37002 ft 435 kts 251°
2026-05-01 10:38 38.76268 -20.79849 37002 ft 435 kts 251°
2026-05-01 10:39 38.74091 -20.87056 37004 ft 435 kts 251°
2026-05-01 10:39 38.71900 -20.94294 37007 ft 435 kts 251°
2026-05-01 10:40 38.69724 -21.01462 37005 ft 435 kts 251°
2026-05-01 10:40 38.67521 -21.08697 37007 ft 434 kts 251°
2026-05-01 10:41 38.65358 -21.15778 37008 ft 425 kts 251°
2026-05-01 10:42 38.62136 -21.26304 37003 ft 422 kts 251°
2026-05-01 10:42 38.60002 -21.33254 37004 ft 423 kts 251°
2026-05-01 10:43 38.57844 -21.40265 37011 ft 423 kts 251°
2026-05-01 10:43 38.55691 -21.47239 36995 ft 423 kts 251°
2026-05-01 10:44 38.53535 -21.54205 37013 ft 422 kts 251°
2026-05-01 10:44 38.51367 -21.61190 37021 ft 422 kts 251°
2026-05-01 10:45 38.49196 -21.68171 37012 ft 422 kts 251°
2026-05-01 10:45 38.47037 -21.75095 37023 ft 422 kts 251°
2026-05-01 10:46 38.44852 -21.82083 36981 ft 422 kts 252°
2026-05-01 10:46 38.42699 -21.88948 37020 ft 417 kts 252°
2026-05-01 10:47 38.40538 -21.95825 37018 ft 416 kts 252°
2026-05-01 10:47 38.38381 -22.02680 37017 ft 416 kts 252°
2026-05-01 10:48 38.36229 -22.09497 37017 ft 416 kts 252°
2026-05-01 10:48 38.34059 -22.16354 37017 ft 416 kts 252°
2026-05-01 10:49 38.31895 -22.23178 37017 ft 416 kts 252°
2026-05-01 10:49 38.29729 -22.29989 37017 ft 416 kts 252°
2026-05-01 10:50 38.27547 -22.36833 37011 ft 416 kts 251°
2026-05-01 10:50 38.25386 -22.43592 37025 ft 412 kts 251°
2026-05-01 10:51 38.23207 -22.50398 37150 ft 416 kts 251°
2026-05-01 10:51 38.22108 -22.53825 37298 ft 417 kts 251°
2026-05-01 10:51 38.21023 -22.57205 37440 ft 418 kts 251°
2026-05-01 10:51 38.19920 -22.60633 37594 ft 418 kts 251°
2026-05-01 10:52 38.18813 -22.64071 37766 ft 418 kts 251°
2026-05-01 10:52 38.17721 -22.67457 37910 ft 419 kts 251°
2026-05-01 10:52 38.16617 -22.70875 38066 ft 419 kts 251°
2026-05-01 10:52 38.15510 -22.74298 38225 ft 419 kts 251°
2026-05-01 10:53 38.14400 -22.77730 38375 ft 419 kts 251°
2026-05-01 10:53 38.12184 -22.84564 38642 ft 420 kts 251°
2026-05-01 10:53 38.11072 -22.87990 38767 ft 420 kts 250°
2026-05-01 10:54 38.10316 -22.90315 38860 ft 420 kts 250°
2026-05-01 10:54 38.08097 -22.97132 39022 ft 421 kts 250°
2026-05-01 10:55 38.05864 -23.03970 39032 ft 420 kts 250°
2026-05-01 10:55 38.03625 -23.10815 39017 ft 420 kts 250°
2026-05-01 10:56 38.01380 -23.17658 39036 ft 418 kts 250°
2026-05-01 10:56 37.99141 -23.24468 39041 ft 418 kts 250°
2026-05-01 10:57 37.96913 -23.31232 39045 ft 418 kts 250°
2026-05-01 10:57 37.94675 -23.38008 39042 ft 418 kts 250°
2026-05-01 10:58 37.92426 -23.44804 39029 ft 418 kts 250°
2026-05-01 10:58 37.90166 -23.51615 39037 ft 418 kts 250°
2026-05-01 10:59 37.87920 -23.58368 39052 ft 418 kts 250°
2026-05-01 10:59 37.85652 -23.65169 39043 ft 418 kts 250°
2026-05-01 11:00 37.83393 -23.71929 39053 ft 418 kts 250°
2026-05-01 11:00 37.81116 -23.78729 39048 ft 418 kts 250°
2026-05-01 11:01 37.78845 -23.85494 39050 ft 419 kts 250°
2026-05-01 11:01 37.76558 -23.92291 39051 ft 419 kts 250°
2026-05-01 11:02 37.74278 -23.99048 39049 ft 419 kts 250°
2026-05-01 11:02 37.71982 -24.05840 39054 ft 419 kts 250°
2026-05-01 11:03 37.69697 -24.12585 39053 ft 420 kts 249°
2026-05-01 11:03 37.67395 -24.19365 39049 ft 419 kts 249°
2026-05-01 11:04 37.65093 -24.26123 39060 ft 417 kts 249°
2026-05-01 11:04 37.62812 -24.32808 39057 ft 417 kts 249°
2026-05-01 11:05 37.60510 -24.39541 39044 ft 417 kts 248°
2026-05-01 11:05 37.58200 -24.46283 39056 ft 419 kts 248°
2026-05-01 11:06 37.55894 -24.52997 39061 ft 419 kts 248°
2026-05-01 11:06 37.53569 -24.59749 39061 ft 419 kts 248°
2026-05-01 11:07 37.50083 -24.69844 39064 ft 420 kts 248°
2026-05-01 11:07 37.47745 -24.76596 39065 ft 421 kts 248°
2026-05-01 11:08 37.45410 -24.83324 39061 ft 422 kts 248°
2026-05-01 11:09 37.41876 -24.93477 39059 ft 422 kts 248°
2026-05-01 11:09 37.39509 -25.00259 39062 ft 422 kts 248°
2026-05-01 11:10 37.35968 -25.10377 39064 ft 424 kts 248°
2026-05-01 11:10 37.33588 -25.17159 39064 ft 424 kts 248°
2026-05-01 11:11 37.31205 -25.23932 39064 ft 424 kts 248°
2026-05-01 11:11 37.28826 -25.30678 39067 ft 424 kts 248°
2026-05-01 11:12 37.26426 -25.37471 39070 ft 424 kts 248°
2026-05-01 11:12 37.24039 -25.44210 39069 ft 424 kts 247°
2026-05-01 11:13 37.21635 -25.50983 39069 ft 424 kts 247°
2026-05-01 11:13 37.19238 -25.57722 39070 ft 424 kts 247°
2026-05-01 11:14 37.16820 -25.64502 39070 ft 424 kts 247°
2026-05-01 11:14 37.14418 -25.71225 39070 ft 426 kts 247°
2026-05-01 11:15 37.11980 -25.78031 39072 ft 426 kts 247°
2026-05-01 11:15 37.09562 -25.84769 39072 ft 426 kts 247°
2026-05-01 11:16 37.07131 -25.91525 39062 ft 426 kts 247°
2026-05-01 11:16 37.04684 -25.98312 39078 ft 425 kts 247°
2026-05-01 11:17 37.02250 -26.05049 39067 ft 426 kts 247°
2026-05-01 11:17 36.99806 -26.11797 39080 ft 426 kts 246°
2026-05-01 11:18 36.97361 -26.18534 39070 ft 426 kts 246°
2026-05-01 11:18 36.94910 -26.25273 39071 ft 426 kts 246°
2026-05-01 11:19 36.92459 -26.31998 39086 ft 427 kts 246°
2026-05-01 11:19 36.89992 -26.38751 39070 ft 428 kts 246°
2026-05-01 11:20 36.87503 -26.45549 39082 ft 428 kts 246°
2026-05-01 11:20 36.85032 -26.52283 39068 ft 428 kts 246°
2026-05-01 11:21 36.82554 -26.59020 39082 ft 428 kts 246°
2026-05-01 11:21 36.80063 -26.65780 39074 ft 428 kts 246°
2026-05-01 11:22 36.77579 -26.72504 39068 ft 429 kts 246°
2026-05-01 11:22 36.75084 -26.79245 39068 ft 428 kts 246°
2026-05-01 11:23 36.72576 -26.86005 39081 ft 429 kts 246°
2026-05-01 11:23 36.70077 -26.92728 39075 ft 429 kts 246°
2026-05-01 11:24 36.67552 -26.99505 39078 ft 430 kts 246°
2026-05-01 11:25 36.63768 -27.09634 39077 ft 430 kts 246°
2026-05-01 11:25 36.59978 -27.19746 39075 ft 430 kts 246°
2026-05-01 11:26 36.56183 -27.29838 39075 ft 431 kts 246°
2026-05-01 11:27 36.53648 -27.36563 39078 ft 431 kts 246°
2026-05-01 11:27 36.51103 -27.43299 39078 ft 431 kts 246°
2026-05-01 11:28 36.48553 -27.50032 39075 ft 431 kts 246°
2026-05-01 11:28 36.45988 -27.56791 39076 ft 430 kts 246°
2026-05-01 11:29 36.42173 -27.66818 39075 ft 429 kts 245°
2026-05-01 11:30 36.38344 -27.76850 39080 ft 428 kts 245°
2026-05-01 11:30 36.35791 -27.83521 39072 ft 428 kts 245°
2026-05-01 11:31 36.33226 -27.90211 39076 ft 428 kts 245°
2026-05-01 11:31 36.30668 -27.96866 39074 ft 428 kts 245°
2026-05-01 11:32 36.28110 -28.03510 39080 ft 428 kts 245°
2026-05-01 11:32 36.25539 -28.10171 39077 ft 428 kts 245°
2026-05-01 11:33 36.22961 -28.16838 39077 ft 429 kts 245°
2026-05-01 11:33 36.20387 -28.23479 39078 ft 429 kts 245°
2026-05-01 11:34 36.17815 -28.30100 39082 ft 429 kts 245°
2026-05-01 11:34 36.15217 -28.36778 39078 ft 429 kts 245°
2026-05-01 11:35 36.12634 -28.43401 39075 ft 429 kts 245°
2026-05-01 11:35 36.10033 -28.50056 39073 ft 429 kts 245°
2026-05-01 11:36 36.07452 -28.56647 39077 ft 429 kts 245°
2026-05-01 11:36 36.04845 -28.63293 39075 ft 429 kts 245°
2026-05-01 11:37 36.02667 -28.68832 39075 ft 429 kts 245°
2026-05-01 11:37 35.99639 -28.76520 39075 ft 429 kts 245°
2026-05-01 11:38 35.97026 -28.83138 39078 ft 429 kts 245°
2026-05-01 11:38 35.94400 -28.89774 39076 ft 429 kts 245°
2026-05-01 11:39 35.91786 -28.96369 39069 ft 429 kts 245°
2026-05-01 11:39 35.89172 -29.02947 39073 ft 429 kts 245°
2026-05-01 11:40 35.86546 -29.09546 39074 ft 429 kts 245°
2026-05-01 11:40 35.83903 -29.16171 39072 ft 429 kts 245°
2026-05-01 11:41 35.81284 -29.22725 39073 ft 429 kts 245°
2026-05-01 11:41 35.78637 -29.29333 39067 ft 429 kts 245°
2026-05-01 11:42 35.76016 -29.35863 39071 ft 427 kts 245°
2026-05-01 11:42 35.73375 -29.42433 39073 ft 426 kts 245°
2026-05-01 11:43 35.70751 -29.48945 39069 ft 426 kts 245°
2026-05-01 11:43 35.68120 -29.55462 39073 ft 426 kts 244°
2026-05-01 11:44 35.64163 -29.65239 39067 ft 427 kts 244°
2026-05-01 11:44 35.61513 -29.71770 39064 ft 427 kts 244°
2026-05-01 11:45 35.58850 -29.78319 39067 ft 427 kts 244°
2026-05-01 11:45 35.56199 -29.84829 39064 ft 427 kts 244°
2026-05-01 11:46 35.53533 -29.91360 39064 ft 427 kts 244°
2026-05-01 11:46 35.50892 -29.97889 39064 ft 427 kts 247°
2026-05-01 11:47 35.49037 -30.04759 39064 ft 426 kts 255°
2026-05-01 11:47 35.47549 -30.11819 39049 ft 427 kts 256°
2026-05-01 11:48 35.46136 -30.18876 39058 ft 426 kts 256°
2026-05-01 11:48 35.44721 -30.25900 39058 ft 426 kts 256°
2026-05-01 11:49 35.43518 -30.31791 39062 ft 426 kts 256°
2026-05-01 11:49 35.41828 -30.40006 39059 ft 426 kts 256°
2026-05-01 11:50 35.40378 -30.47020 39056 ft 425 kts 256°
2026-05-01 11:50 35.38925 -30.54031 39056 ft 425 kts 256°
2026-05-01 11:51 35.37467 -30.61046 39055 ft 425 kts 256°
2026-05-01 11:51 35.36249 -30.66892 39054 ft 425 kts 256°
2026-05-01 11:52 35.34781 -30.73911 39054 ft 425 kts 256°
2026-05-01 11:52 35.33312 -30.80917 39053 ft 425 kts 256°
2026-05-01 11:53 35.31838 -30.87928 39046 ft 425 kts 256°
2026-05-01 11:53 35.30355 -30.94958 39045 ft 425 kts 256°
2026-05-01 11:54 35.28875 -31.01949 39047 ft 424 kts 256°
2026-05-01 11:54 35.27403 -31.08882 39048 ft 422 kts 256°
2026-05-01 11:55 35.25927 -31.15816 39048 ft 422 kts 256°
2026-05-01 11:55 35.24446 -31.22748 39045 ft 422 kts 256°
2026-05-01 11:56 35.22953 -31.29717 39045 ft 422 kts 255°
2026-05-01 11:56 35.21469 -31.36621 39042 ft 422 kts 255°
2026-05-01 11:57 35.19969 -31.43583 39045 ft 424 kts 255°
2026-05-01 11:57 35.18454 -31.50592 39042 ft 427 kts 255°
2026-05-01 11:58 35.16938 -31.57582 39041 ft 428 kts 255°
2026-05-01 11:59 35.14640 -31.68138 39034 ft 427 kts 255°
2026-05-01 11:59 35.13116 -31.75116 39031 ft 427 kts 255°
2026-05-01 12:00 35.10805 -31.85651 39030 ft 425 kts 255°
2026-05-01 12:01 35.08513 -31.96056 39031 ft 423 kts 255°
2026-05-01 12:01 35.06976 -32.03005 39026 ft 424 kts 255°
2026-05-01 12:02 35.05434 -32.09961 39019 ft 423 kts 255°
2026-05-01 12:02 35.03906 -32.16831 39020 ft 420 kts 255°
2026-05-01 12:03 35.02377 -32.23685 39018 ft 420 kts 255°
2026-05-01 12:03 35.00838 -32.30565 39014 ft 420 kts 255°
2026-05-01 12:04 34.99293 -32.37451 39015 ft 420 kts 255°
2026-05-01 12:04 34.97755 -32.44286 39012 ft 418 kts 255°
2026-05-01 12:05 34.96220 -32.51087 39005 ft 418 kts 255°
2026-05-01 12:05 34.93897 -32.61348 39012 ft 418 kts 255°
2026-05-01 12:06 34.92354 -32.68133 39006 ft 416 kts 255°
2026-05-01 12:06 34.90801 -32.74948 39002 ft 416 kts 255°
2026-05-01 12:07 34.89260 -32.81691 39003 ft 413 kts 255°
2026-05-01 12:07 34.87720 -32.88413 38999 ft 413 kts 255°
2026-05-01 12:08 34.86171 -32.95153 38994 ft 412 kts 255°
2026-05-01 12:08 34.84627 -33.01851 38996 ft 411 kts 255°
2026-05-01 12:09 34.83082 -33.08535 38991 ft 411 kts 255°
2026-05-01 12:09 34.81528 -33.15243 38990 ft 411 kts 255°
2026-05-01 12:10 34.79200 -33.25255 38988 ft 409 kts 255°
2026-05-01 12:11 34.76874 -33.35216 38985 ft 409 kts 255°
2026-05-01 12:11 34.75317 -33.41864 38980 ft 409 kts 255°
2026-05-01 12:12 34.73759 -33.48499 38974 ft 408 kts 255°
2026-05-01 12:12 34.72199 -33.55118 38974 ft 408 kts 255°
2026-05-01 12:13 34.70637 -33.61733 38966 ft 408 kts 255°
2026-05-01 12:13 34.69066 -33.68368 38966 ft 408 kts 255°
2026-05-01 12:14 34.67499 -33.74972 38966 ft 408 kts 255°
2026-05-01 12:14 34.65926 -33.81579 38966 ft 408 kts 255°
2026-05-01 12:15 34.64341 -33.88220 38966 ft 408 kts 255°
2026-05-01 12:15 34.62761 -33.94821 38963 ft 408 kts 255°
2026-05-01 12:16 34.61180 -34.01411 38955 ft 408 kts 254°
2026-05-01 12:16 34.59584 -34.08045 38955 ft 408 kts 254°
2026-05-01 12:17 34.57997 -34.14626 38949 ft 408 kts 254°
2026-05-01 12:17 34.56395 -34.21248 38950 ft 408 kts 254°
2026-05-01 12:18 34.54804 -34.27811 38949 ft 407 kts 255°
2026-05-01 12:18 34.53206 -34.34384 38948 ft 407 kts 254°
2026-05-01 12:19 34.51594 -34.41001 38946 ft 409 kts 254°
2026-05-01 12:19 34.49973 -34.47633 38941 ft 410 kts 254°
2026-05-01 12:20 34.48358 -34.54226 38939 ft 410 kts 254°
2026-05-01 12:20 34.46739 -34.60819 38939 ft 409 kts 254°
2026-05-01 12:21 34.45105 -34.67453 38936 ft 409 kts 254°
2026-05-01 12:21 34.43477 -34.74047 38927 ft 409 kts 254°
2026-05-01 12:22 34.41847 -34.80632 38933 ft 408 kts 254°
2026-05-01 12:22 34.40214 -34.87211 38928 ft 408 kts 254°
2026-05-01 12:23 34.38577 -34.93792 38930 ft 408 kts 254°
2026-05-01 12:23 34.36940 -35.00357 38921 ft 408 kts 254°
2026-05-01 12:24 34.35288 -35.06963 38925 ft 407 kts 254°
2026-05-01 12:24 34.33653 -35.13483 38925 ft 407 kts 254°
2026-05-01 12:25 34.31177 -35.23333 38922 ft 407 kts 254°
2026-05-01 12:26 34.29533 -35.29847 38919 ft 407 kts 254°
2026-05-01 12:26 34.27047 -35.39673 38919 ft 407 kts 253°
2026-05-01 12:27 34.24551 -35.49501 38916 ft 407 kts 253°
2026-05-01 12:28 34.22056 -35.59287 38914 ft 407 kts 253°
2026-05-01 12:29 34.19545 -35.69098 38911 ft 407 kts 253°
2026-05-01 12:29 34.17026 -35.78906 38908 ft 408 kts 254°
2026-05-01 12:30 34.14506 -35.88682 38912 ft 408 kts 253°
2026-05-01 12:31 34.12813 -35.95230 38910 ft 408 kts 253°
2026-05-01 12:31 34.11124 -36.01747 38908 ft 408 kts 253°
2026-05-01 12:32 34.09424 -36.08289 38904 ft 408 kts 253°
2026-05-01 12:32 34.06869 -36.18091 38906 ft 409 kts 253°
2026-05-01 12:33 34.05163 -36.24614 38905 ft 409 kts 253°
2026-05-01 12:33 34.03451 -36.31147 38904 ft 408 kts 253°
2026-05-01 12:34 34.01738 -36.37668 38906 ft 408 kts 253°
2026-05-01 12:34 34.00020 -36.44193 38904 ft 408 kts 253°
2026-05-01 12:35 33.98302 -36.50702 38904 ft 408 kts 253°
2026-05-01 12:35 33.96577 -36.57223 38905 ft 408 kts 253°
2026-05-01 12:36 33.94855 -36.63713 38905 ft 408 kts 253°
2026-05-01 12:36 33.93117 -36.70250 38899 ft 408 kts 253°
2026-05-01 12:37 33.91389 -36.76735 38900 ft 408 kts 253°
2026-05-01 12:37 33.89648 -36.83254 38903 ft 408 kts 253°
2026-05-01 12:38 33.87909 -36.89748 38899 ft 409 kts 253°
2026-05-01 12:38 33.86156 -36.96278 38898 ft 409 kts 253°
2026-05-01 12:39 33.84413 -37.02755 38896 ft 409 kts 253°
2026-05-01 12:39 33.82665 -37.09239 38899 ft 409 kts 253°
2026-05-01 12:40 33.80892 -37.15801 38894 ft 411 kts 253°
2026-05-01 12:40 33.79130 -37.22301 38895 ft 411 kts 253°
2026-05-01 12:41 33.77357 -37.28829 38895 ft 411 kts 253°
2026-05-01 12:41 33.75579 -37.35358 38895 ft 411 kts 253°
2026-05-01 12:42 33.73805 -37.41863 38895 ft 411 kts 253°
2026-05-01 12:42 33.72012 -37.48418 38887 ft 411 kts 253°
2026-05-01 12:43 33.70228 -37.54926 38892 ft 410 kts 253°
2026-05-01 12:43 33.68448 -37.61400 38892 ft 409 kts 253°
2026-05-01 12:44 33.66656 -37.67907 38891 ft 410 kts 253°
2026-05-01 12:45 33.63082 -37.80840 38887 ft 409 kts 253°
2026-05-01 12:45 33.61277 -37.87351 38886 ft 409 kts 253°
2026-05-01 12:46 33.59475 -37.93831 38888 ft 409 kts 253°
2026-05-01 12:46 33.57677 -38.00285 38882 ft 409 kts 253°
2026-05-01 12:47 33.55879 -38.06724 38884 ft 408 kts 253°
2026-05-01 12:47 33.54077 -38.13162 38885 ft 408 kts 253°
2026-05-01 12:48 33.52567 -38.18546 38881 ft 408 kts 253°
2026-05-01 12:48 33.50760 -38.24976 38882 ft 409 kts 253°
2026-05-01 12:49 33.48936 -38.31453 38881 ft 409 kts 253°
2026-05-01 12:49 33.47118 -38.37893 38882 ft 409 kts 253°
2026-05-01 12:50 33.45298 -38.44324 38870 ft 409 kts 253°
2026-05-01 12:50 33.43466 -38.50783 38879 ft 408 kts 253°
2026-05-01 12:51 33.41651 -38.57171 38879 ft 407 kts 253°
2026-05-01 12:52 33.38907 -38.66799 38875 ft 407 kts 253°
2026-05-01 12:52 33.36160 -38.76403 38887 ft 407 kts 253°
2026-05-01 12:53 33.33403 -38.86014 38879 ft 407 kts 253°
2026-05-01 12:54 33.31568 -38.92392 38878 ft 407 kts 252°
2026-05-01 12:54 33.28795 -39.02003 38872 ft 407 kts 252°
2026-05-01 12:55 33.26022 -39.11582 38872 ft 407 kts 252°
2026-05-01 12:56 33.24164 -39.17986 38873 ft 407 kts 252°
2026-05-01 12:56 33.22316 -39.24339 38875 ft 406 kts 252°
2026-05-01 12:57 33.20453 -39.30730 38874 ft 406 kts 252°
2026-05-01 12:57 33.17662 -39.40276 38870 ft 406 kts 252°
2026-05-01 12:58 33.15806 -39.46611 38867 ft 406 kts 252°
2026-05-01 12:59 33.13007 -39.56133 38869 ft 406 kts 252°
2026-05-01 12:59 33.10197 -39.65667 38865 ft 407 kts 252°
2026-05-01 13:00 33.07375 -39.75207 38878 ft 407 kts 252°
2026-05-01 13:01 33.04545 -39.84743 38870 ft 407 kts 252°
2026-05-01 13:02 33.01704 -39.94287 38870 ft 407 kts 252°
2026-05-01 13:07 32.76589 -40.62371 38864 ft 409 kts 248°
2026-05-01 13:08 32.74257 -40.68522 38866 ft 409 kts 248°
2026-05-01 13:08 32.71922 -40.74669 38860 ft 409 kts 248°
2026-05-01 13:09 32.69586 -40.80810 38862 ft 409 kts 248°
2026-05-01 13:09 32.67236 -40.86973 38862 ft 409 kts 248°
2026-05-01 13:10 32.64900 -40.93091 38857 ft 409 kts 248°
2026-05-01 13:10 32.62542 -40.99256 38865 ft 409 kts 248°
2026-05-01 13:11 32.60193 -41.05384 38864 ft 409 kts 248°
2026-05-01 13:11 32.57846 -41.11497 38865 ft 409 kts 248°
2026-05-01 13:12 32.55475 -41.17662 38864 ft 409 kts 248°
2026-05-01 13:12 32.53119 -41.23776 38865 ft 409 kts 248°
2026-05-01 13:13 32.50758 -41.29893 38864 ft 409 kts 248°
2026-05-01 13:13 32.48396 -41.36001 38863 ft 409 kts 248°
2026-05-01 13:14 32.46026 -41.42118 38865 ft 409 kts 248°
2026-05-01 13:14 32.43645 -41.48254 38866 ft 409 kts 248°
2026-05-01 13:15 32.41271 -41.54359 38864 ft 409 kts 248°
2026-05-01 13:15 32.38885 -41.60488 38865 ft 409 kts 248°
2026-05-01 13:16 32.36504 -41.66591 38865 ft 409 kts 248°
2026-05-01 13:16 32.34128 -41.72669 38865 ft 409 kts 248°
2026-05-01 13:17 32.29351 -41.84861 38866 ft 408 kts 248°
2026-05-01 13:18 32.25767 -41.93978 38869 ft 408 kts 248°
2026-05-01 13:18 32.23374 -42.00053 38856 ft 408 kts 248°
2026-05-01 13:19 32.20984 -42.06109 38865 ft 408 kts 248°
2026-05-01 13:20 32.17386 -42.15208 38870 ft 408 kts 248°
2026-05-01 13:20 32.14985 -42.21268 38873 ft 408 kts 248°
2026-05-01 13:21 32.11372 -42.30364 38854 ft 408 kts 248°
2026-05-01 13:21 32.08955 -42.36437 38871 ft 408 kts 248°
2026-05-01 13:22 32.06548 -42.42474 38870 ft 408 kts 248°
2026-05-01 13:22 32.04141 -42.48498 38870 ft 407 kts 248°
2026-05-01 13:23 32.01731 -42.54524 38870 ft 407 kts 248°
2026-05-01 13:23 31.99317 -42.60548 38870 ft 407 kts 248°
2026-05-01 13:24 31.96884 -42.66607 38873 ft 407 kts 248°
2026-05-01 13:25 31.93264 -42.75605 38873 ft 407 kts 248°
2026-05-01 13:25 31.90837 -42.81627 38873 ft 407 kts 248°
2026-05-01 13:26 31.88401 -42.87658 38874 ft 407 kts 248°
2026-05-01 13:26 31.85975 -42.93656 38873 ft 407 kts 248°
2026-05-01 13:27 31.83546 -42.99651 38874 ft 407 kts 248°
2026-05-01 13:27 31.79887 -43.08661 38877 ft 406 kts 248°
2026-05-01 13:28 31.76231 -43.17642 38875 ft 406 kts 248°
2026-05-01 13:29 31.71353 -43.29590 38880 ft 406 kts 248°
2026-05-01 13:31 31.64004 -43.47513 38877 ft 406 kts 249°
2026-05-01 13:32 31.57856 -43.62443 38878 ft 407 kts 248°
2026-05-01 13:33 31.51703 -43.77319 38884 ft 407 kts 249°
2026-05-01 13:34 31.46747 -43.89260 38883 ft 407 kts 249°
2026-05-01 13:35 31.43038 -43.98167 38886 ft 407 kts 249°
2026-05-01 13:36 31.39311 -44.07099 38887 ft 407 kts 249°
2026-05-01 13:36 31.35579 -44.16018 38893 ft 407 kts 249°
2026-05-01 13:37 31.33517 -44.20939 38892 ft 407 kts 249°
2026-05-01 13:37 31.30606 -44.27872 38892 ft 407 kts 249°
2026-05-01 13:38 31.26862 -44.36772 38891 ft 407 kts 249°
2026-05-01 13:39 31.24368 -44.42688 38876 ft 407 kts 249°
2026-05-01 13:39 31.21866 -44.48614 38892 ft 407 kts 249°
2026-05-01 13:40 31.19368 -44.54518 38897 ft 407 kts 249°
2026-05-01 13:40 31.16866 -44.60426 38897 ft 407 kts 249°
2026-05-01 13:41 31.14350 -44.66355 38897 ft 406 kts 249°
2026-05-01 13:41 31.11849 -44.72239 38898 ft 406 kts 249°
2026-05-01 13:42 31.09339 -44.78135 38903 ft 406 kts 249°
2026-05-01 13:42 31.06815 -44.84056 38896 ft 406 kts 249°
2026-05-01 13:43 31.04303 -44.89938 38897 ft 406 kts 249°
2026-05-01 13:43 31.01782 -44.95833 38901 ft 406 kts 249°
2026-05-01 13:44 30.99318 -45.01717 38899 ft 404 kts 251°
2026-05-01 13:44 30.97055 -45.07698 38898 ft 403 kts 252°
2026-05-01 13:45 30.94837 -45.13732 38897 ft 403 kts 252°
2026-05-01 13:45 30.92621 -45.19704 38901 ft 403 kts 252°
2026-05-01 13:46 30.90391 -45.25657 38906 ft 402 kts 252°
2026-05-01 13:46 30.88154 -45.31600 38906 ft 402 kts 252°
2026-05-01 13:47 30.85912 -45.37546 38895 ft 402 kts 252°
2026-05-01 13:47 30.83661 -45.43507 38915 ft 401 kts 252°
2026-05-01 13:48 30.81420 -45.49433 38909 ft 401 kts 252°
2026-05-01 13:48 30.79184 -45.55338 38908 ft 401 kts 252°
2026-05-01 13:49 30.77307 -45.60287 38909 ft 401 kts 252°
2026-05-01 13:49 30.74690 -45.67175 38915 ft 399 kts 252°
2026-05-01 13:50 30.72816 -45.72096 38916 ft 398 kts 252°
2026-05-01 13:50 30.70579 -45.77967 38920 ft 399 kts 252°
2026-05-01 13:51 30.68324 -45.83876 38914 ft 399 kts 252°
2026-05-01 13:51 30.66086 -45.89727 38915 ft 398 kts 251°
2026-05-01 13:52 30.63836 -45.95599 38916 ft 396 kts 251°
2026-05-01 13:52 30.61589 -46.01455 38918 ft 396 kts 251°
2026-05-01 13:53 30.59356 -46.07268 38919 ft 396 kts 251°
2026-05-01 13:53 30.55981 -46.16033 38920 ft 396 kts 251°
2026-05-01 13:54 30.53740 -46.21843 38923 ft 397 kts 251°
2026-05-01 13:54 30.51473 -46.27709 38929 ft 398 kts 251°
2026-05-01 13:55 30.49207 -46.33562 38926 ft 398 kts 251°
2026-05-01 13:55 30.46947 -46.39392 38930 ft 398 kts 251°
2026-05-01 13:56 30.44669 -46.45256 38932 ft 399 kts 251°
2026-05-01 13:56 30.42394 -46.51105 38935 ft 399 kts 251°
2026-05-01 13:57 30.40108 -46.56972 38938 ft 399 kts 251°
2026-05-01 13:57 30.37830 -46.62808 38925 ft 399 kts 251°
2026-05-01 13:58 30.35538 -46.68673 38936 ft 400 kts 251°
2026-05-01 13:58 30.33253 -46.74511 38939 ft 400 kts 251°
2026-05-01 13:59 30.30949 -46.80386 38935 ft 400 kts 251°
2026-05-01 13:59 30.28642 -46.86260 38935 ft 400 kts 251°
2026-05-01 14:00 30.26345 -46.92099 38938 ft 400 kts 251°
2026-05-01 14:00 30.24047 -46.97932 38948 ft 400 kts 251°
2026-05-01 14:01 30.21723 -47.03819 38939 ft 400 kts 251°
2026-05-01 14:01 30.19420 -47.09645 38941 ft 400 kts 251°
2026-05-01 14:02 30.17112 -47.15475 38935 ft 400 kts 251°
2026-05-01 14:02 30.14788 -47.21338 38941 ft 401 kts 250°
2026-05-01 14:03 30.12470 -47.27173 38941 ft 401 kts 250°
2026-05-01 14:03 30.10135 -47.33043 38944 ft 401 kts 250°
2026-05-01 14:04 30.07799 -47.38906 38950 ft 401 kts 250°
2026-05-01 14:04 30.05471 -47.44741 38948 ft 402 kts 250°
2026-05-01 14:05 30.03119 -47.50626 38948 ft 403 kts 250°
2026-05-01 14:05 30.00780 -47.56467 38945 ft 403 kts 250°
2026-05-01 14:06 29.98420 -47.62352 38950 ft 403 kts 250°
2026-05-01 14:06 29.96064 -47.68219 38943 ft 404 kts 250°
2026-05-01 14:07 29.93711 -47.74070 38947 ft 404 kts 250°
2026-05-01 14:08 29.90147 -47.82914 38950 ft 404 kts 250°
2026-05-01 14:08 29.87781 -47.88774 38952 ft 405 kts 250°
2026-05-01 14:09 29.85405 -47.94648 38939 ft 405 kts 250°
2026-05-01 14:09 29.83029 -48.00514 38953 ft 406 kts 250°
2026-05-01 14:10 29.80633 -48.06421 38955 ft 406 kts 250°
2026-05-01 14:10 29.78246 -48.12295 38955 ft 407 kts 250°
2026-05-01 14:11 29.75839 -48.18209 38957 ft 407 kts 250°
2026-05-01 14:11 29.72239 -48.27036 38958 ft 408 kts 250°
2026-05-01 14:12 29.69816 -48.32965 38961 ft 408 kts 250°
2026-05-01 14:12 29.67405 -48.38856 38961 ft 408 kts 250°
2026-05-01 14:13 29.65390 -48.43773 38962 ft 408 kts 250°
2026-05-01 14:13 29.62567 -48.50652 38961 ft 409 kts 250°
2026-05-01 14:14 29.60125 -48.56592 38966 ft 410 kts 250°
2026-05-01 14:14 29.57695 -48.62493 38971 ft 410 kts 250°
2026-05-01 14:15 29.55249 -48.68423 38960 ft 410 kts 250°
2026-05-01 14:15 29.52813 -48.74318 38959 ft 410 kts 250°
2026-05-01 14:16 29.50358 -48.80253 38969 ft 410 kts 250°
2026-05-01 14:16 29.47915 -48.86149 38966 ft 411 kts 250°
2026-05-01 14:17 29.45463 -48.92057 38963 ft 411 kts 250°
2026-05-01 14:17 29.42997 -48.97990 38970 ft 411 kts 250°
2026-05-01 14:18 29.40539 -49.03894 38957 ft 411 kts 250°
2026-05-01 14:18 29.38489 -49.08813 38966 ft 411 kts 249°
2026-05-01 14:19 29.35596 -49.15741 38973 ft 412 kts 249°
2026-05-01 14:19 29.33128 -49.21643 38971 ft 412 kts 249°
2026-05-01 14:20 29.29405 -49.30527 38955 ft 412 kts 249°
2026-05-01 14:21 29.26928 -49.36427 38978 ft 413 kts 249°
2026-05-01 14:21 29.24431 -49.42366 38978 ft 413 kts 249°
2026-05-01 14:22 29.20695 -49.51235 38975 ft 413 kts 249°
2026-05-01 14:22 29.18189 -49.57170 38976 ft 413 kts 249°
2026-05-01 14:23 29.15698 -49.63064 38973 ft 413 kts 249°
2026-05-01 14:23 29.13184 -49.69002 38979 ft 414 kts 249°
2026-05-01 14:24 29.10677 -49.74914 38986 ft 414 kts 249°
2026-05-01 14:24 29.08159 -49.80842 38977 ft 414 kts 249°
2026-05-01 14:25 29.05651 -49.86738 38976 ft 414 kts 249°
2026-05-01 14:25 29.03133 -49.92651 38980 ft 414 kts 249°
2026-05-01 14:26 28.99151 -50.01404 38983 ft 417 kts 244°
2026-05-01 14:27 28.96050 -50.07026 38981 ft 418 kts 243°
2026-05-01 14:27 28.92879 -50.12601 38982 ft 419 kts 242°
2026-05-01 14:28 28.88119 -50.20941 38982 ft 419 kts 242°
2026-05-01 14:28 28.84936 -50.26529 38991 ft 419 kts 242°
2026-05-01 14:29 28.81771 -50.32083 38988 ft 419 kts 242°
2026-05-01 14:30 28.75409 -50.43228 38981 ft 420 kts 242°
2026-05-01 14:31 28.70635 -50.51569 38981 ft 419 kts 242°
2026-05-01 14:31 28.67453 -50.57121 38984 ft 420 kts 242°
2026-05-01 14:32 28.64267 -50.62672 38988 ft 420 kts 242°
2026-05-01 14:32 28.61058 -50.68256 38987 ft 421 kts 242°
2026-05-01 14:33 28.57859 -50.73815 38994 ft 421 kts 242°
2026-05-01 14:33 28.54646 -50.79390 38995 ft 421 kts 242°
2026-05-01 14:34 28.51445 -50.84937 38992 ft 421 kts 242°
2026-05-01 14:34 28.48231 -50.90500 38992 ft 421 kts 242°
2026-05-01 14:35 28.45016 -50.96057 38994 ft 422 kts 242°
2026-05-01 14:35 28.41793 -51.01620 38997 ft 422 kts 242°
2026-05-01 14:36 28.38571 -51.07176 38997 ft 422 kts 242°
2026-05-01 14:36 28.35339 -51.12740 38982 ft 422 kts 242°
2026-05-01 14:37 28.32113 -51.18288 39002 ft 423 kts 242°
2026-05-01 14:37 28.28854 -51.23884 39004 ft 423 kts 242°
2026-05-01 14:38 28.25614 -51.29440 39002 ft 423 kts 242°
2026-05-01 14:38 28.22379 -51.34980 39007 ft 423 kts 242°
2026-05-01 14:39 28.19128 -51.40542 39004 ft 423 kts 242°
2026-05-01 14:39 28.15879 -51.46093 39004 ft 424 kts 242°
2026-05-01 14:40 28.12607 -51.51676 39004 ft 424 kts 242°
2026-05-01 14:40 28.09343 -51.57237 39004 ft 424 kts 242°
2026-05-01 14:41 28.06088 -51.62775 38990 ft 424 kts 242°
2026-05-01 14:41 28.02800 -51.68363 39010 ft 425 kts 242°
2026-05-01 14:42 27.99539 -51.73899 39010 ft 425 kts 242°
2026-05-01 14:42 27.96252 -51.79470 39010 ft 425 kts 242°
2026-05-01 14:43 27.92981 -51.85007 39013 ft 425 kts 242°
2026-05-01 14:43 27.89682 -51.90586 39005 ft 425 kts 242°
2026-05-01 14:44 27.86402 -51.96125 39012 ft 426 kts 242°
2026-05-01 14:44 27.81460 -52.04456 39018 ft 426 kts 242°
2026-05-01 14:45 27.77051 -52.11875 39012 ft 426 kts 242°
2026-05-01 14:46 27.73756 -52.17412 39011 ft 426 kts 242°
2026-05-01 14:46 27.68783 -52.25754 39021 ft 426 kts 242°
2026-05-01 14:47 27.65481 -52.31286 39023 ft 426 kts 242°
2026-05-01 14:48 27.60495 -52.39624 39023 ft 426 kts 242°
2026-05-01 14:48 27.55529 -52.47912 39019 ft 426 kts 242°
2026-05-01 14:49 27.48880 -52.58985 39020 ft 426 kts 242°
2026-05-01 14:50 27.42238 -52.70020 39019 ft 426 kts 242°
2026-05-01 14:51 27.37247 -52.78292 39022 ft 426 kts 242°
2026-05-01 14:52 27.32255 -52.86552 39023 ft 426 kts 242°
2026-05-01 14:53 27.27248 -52.94820 39016 ft 426 kts 241°
2026-05-01 14:53 27.23927 -53.00296 39029 ft 426 kts 241°
2026-05-01 14:54 27.20572 -53.05820 39024 ft 426 kts 241°
2026-05-01 14:54 27.17250 -53.11285 39030 ft 426 kts 241°
2026-05-01 14:55 27.13896 -53.16794 39035 ft 426 kts 241°
2026-05-01 14:55 27.10569 -53.22254 39017 ft 426 kts 241°
2026-05-01 14:56 27.07204 -53.27768 39036 ft 426 kts 241°
2026-05-01 14:56 27.03864 -53.33233 39036 ft 426 kts 241°
2026-05-01 14:57 27.00519 -53.38701 39022 ft 426 kts 241°
2026-05-01 14:57 26.95484 -53.46919 39029 ft 426 kts 241°
2026-05-01 14:58 26.92120 -53.52401 39032 ft 426 kts 241°
2026-05-01 14:58 26.88772 -53.57850 39034 ft 426 kts 241°
2026-05-01 14:59 26.85425 -53.63291 39035 ft 426 kts 241°
2026-05-01 14:59 26.82050 -53.68770 39033 ft 426 kts 241°
2026-05-01 15:00 26.77026 -53.76915 39036 ft 425 kts 240°
2026-05-01 15:01 26.73650 -53.82379 39037 ft 425 kts 240°
2026-05-01 15:01 26.70290 -53.87812 39037 ft 425 kts 240°
2026-05-01 15:02 26.66937 -53.93227 39037 ft 425 kts 240°
2026-05-01 15:02 26.63575 -53.98651 39039 ft 425 kts 240°
2026-05-01 15:03 26.60192 -54.04100 39039 ft 425 kts 240°
2026-05-01 15:03 26.56835 -54.09502 39042 ft 425 kts 240°
2026-05-01 15:04 26.53468 -54.14913 39046 ft 425 kts 240°
2026-05-01 15:04 26.50098 -54.20322 39042 ft 425 kts 240°
2026-05-01 15:05 26.46703 -54.25766 39043 ft 425 kts 240°
2026-05-01 15:05 26.43327 -54.31171 39045 ft 425 kts 240°
2026-05-01 15:06 26.39944 -54.36582 39047 ft 425 kts 240°
2026-05-01 15:06 26.36568 -54.41976 39045 ft 425 kts 240°
2026-05-01 15:07 26.33193 -54.47361 39045 ft 425 kts 240°
2026-05-01 15:07 26.29808 -54.52757 39048 ft 425 kts 240°
2026-05-01 15:08 26.26395 -54.58191 39047 ft 426 kts 240°
2026-05-01 15:08 26.23005 -54.63581 39048 ft 426 kts 240°
2026-05-01 15:09 26.19601 -54.68985 39048 ft 426 kts 240°
2026-05-01 15:09 26.16203 -54.74376 39048 ft 426 kts 240°
2026-05-01 15:10 26.12814 -54.79747 39048 ft 427 kts 240°
2026-05-01 15:10 26.07685 -54.87862 39046 ft 427 kts 240°
2026-05-01 15:11 26.02552 -54.95968 39052 ft 427 kts 239°
2026-05-01 15:12 25.98827 -55.01122 39055 ft 432 kts 231°
2026-05-01 15:12 25.92347 -55.08153 39053 ft 436 kts 229°
2026-05-01 15:14 25.81348 -55.19673 39054 ft 436 kts 229°
2026-05-01 15:14 25.74745 -55.26618 39056 ft 436 kts 229°
2026-05-01 15:15 25.65968 -55.35835 39058 ft 436 kts 229°
2026-05-01 15:16 25.57149 -55.45075 39061 ft 436 kts 229°
2026-05-01 15:18 25.46146 -55.56575 39061 ft 436 kts 229°
2026-05-01 15:19 25.37321 -55.65777 39055 ft 436 kts 229°
2026-05-01 15:19 25.30695 -55.72673 39053 ft 436 kts 228°
2026-05-01 15:20 25.24076 -55.79551 39061 ft 436 kts 228°
2026-05-01 15:21 25.19660 -55.84135 39062 ft 436 kts 228°
2026-05-01 15:21 25.15217 -55.88741 39065 ft 437 kts 228°
2026-05-01 15:22 25.08580 -55.95612 39064 ft 436 kts 228°
2026-05-01 15:22 25.04159 -56.00182 39064 ft 435 kts 228°
2026-05-01 15:23 24.99739 -56.04749 39067 ft 435 kts 228°
2026-05-01 15:23 24.95326 -56.09303 39066 ft 436 kts 228°
2026-05-01 15:24 24.90912 -56.13853 39060 ft 435 kts 228°
2026-05-01 15:24 24.86515 -56.18378 39065 ft 432 kts 228°
2026-05-01 15:25 24.82130 -56.22889 39067 ft 431 kts 228°
2026-05-01 15:25 24.77759 -56.27383 39067 ft 431 kts 228°
2026-05-01 15:26 24.73360 -56.31900 39063 ft 432 kts 228°
2026-05-01 15:26 24.68976 -56.36397 39063 ft 432 kts 228°
2026-05-01 15:27 24.64599 -56.40880 39067 ft 431 kts 228°
2026-05-01 15:28 24.58019 -56.47613 39067 ft 431 kts 228°
2026-05-01 15:28 24.53615 -56.52114 39067 ft 431 kts 228°
2026-05-01 15:29 24.47043 -56.58820 39072 ft 429 kts 228°
2026-05-01 15:30 24.39047 -56.66970 39069 ft 430 kts 228°
2026-05-01 15:31 24.25179 -56.81065 39068 ft 427 kts 228°
2026-05-01 15:32 24.16474 -56.89893 39069 ft 428 kts 228°
2026-05-01 15:34 24.03346 -57.03170 39073 ft 427 kts 228°